Find Starlink 32478

NORAD ID: 61726 Int'l Des: 2024-196 Owner: SPXS Country: US Constellation: starlink operational
LEOCIRCULAR

Current View

Loading 3D Globe...

About Starlink 32478

Starlink 32478 (NORAD 61726) is a starlink constellation satellite (v2 mini) launched Oct 30, 2024 by SPXS of US. It operates in LEO, CIRCULAR orbit with a mass of 730.00 kg.

Upcoming Passes

Passes for default location (London). Set your location on the main map for personalized predictions.

Altitude History

Loading altitude history...

Two-Line Element Set

1 61726U 24196V 26235.72976484 .00000082 00000-0 13566-4 0 9994
2 61726 53.1602 43.8606 0001427 96.1586 263.9580 15.34389941102752
Epoch: Aug 23, 2026 • Age: 13 hours

Current Status

Altitude 463.0 km
Apogee / Perigee N/A
Velocity 7.64 km/s
Sub-Earth Point 24.22°N, 129.14°E
Launch Date Oct 30, 2024
Age 1.8 years
Type internet

Technical Details

Classification Payload
Mass 730.00 kg
Dry Mass 700.00 kg
Total Mass 730.00 kg
Length 0.30 m
Diameter 4.10 m
Span 29.00 m
Shape Box + pan
Manufacturer SPXS
Bus Type Starlink V2M
Phase Status In Orbit
Owner/State SPXS/US

Most Searched